Location: Ernez
(36.4595°N, 29.8755°E)
Time: 08:19:23
(UTC+00:00)

Cosmos 1975 Rocket - Pass Details

Date: 13 November 2025
Orbit: 597 x 626 km, 82.5° (Epoch: 05 December)

Event Time Altitude Azimuth Distance (km) Brightness Sun altitude
Rises 16:29:52 0° 345° (NNW) 2,862 6.6 -19.5°
Reaches altitude 10° 16:32:10 10° 338° (NNW) 1,959 5.8 -20.0°
Maximum altitude 16:36:15 42° 268° (W) 868 4.3 -20.8°
Drops below altitude 10° 16:40:21 10° 197° (SSW) 1,962 5.9 -21.6°
Sets 16:42:39 0° 190° (S) 2,867 6.7 -22.1°
